SL-8 DEB, 21406

Orbit data source: Space-Track

SL-8 DEB, 21406 is space debris in LEO originally from a launch on Tue, 12 Feb 1991 UTC launched from the Plesetsk Missile And Space Complex (PKMTR). Debris objects in space refer to the collection of defunct objects orbiting the Earth. Examples of debris include non-operational satellites, rocket bodies, and fragments generated from explosions, collisions, or faulty payload assembly.

Loading next visibility...
Identifier
21406, 1991-009BV
Orbit
LEO
Country
Flag of CISCIS
Related business
Manufacturer
Unknown
Mission
Spacecraft
Bus & Motor
Unknown
Mass
Unknown
Launch date (UTC)
1991-02-12 (35 years ago)
Launch vehicle
Unknown
Launch site
Plesetsk Missile And Space Complex (PKMTR)
Object type
Payload
Rocket body
Debris
Shape & HBR
Unknown shape, 0.1 m
Radar Cross Section
Small (<0.1 m²)

Expand to show TLE details & history
Last TLE update: 20 hours ago

TLE from 20 hours ago
0 SL-8 DEB
1 21406U 91009BV  26070.83995853  .00000107  00000-0  98710-3 0  9993
2 21406  73.9132 207.7712 0135486 190.3827 325.4439 12.31824610568639
Epoch: 2026-03-11T20:09Z
TLE epoch observation values (Epoch: 2026-03-11T20:09:32.416Z)
Latitude
24.05006°
Longitude
-91.47012°
Altitude
1,455.937 km
Speed
7.176 km/s
True Right ascension
01h 21m 39s
True Declination
23° 56' 01"
Sunlit
Object was in daylight at epoch
Visualization orbit readout
Latitude
Unknown
Longitude
Unknown
Altitude
Unknown
Speed
Unknown
Apparent Right ascension
Unknown
Apparent Declination
Unknown
Sunlit
N/A
Visualization observer readout
Local Sidereal Time
20:11:17
Azimuth
Unknown
Elevation
Unknown
Doppler factor
Unknown
Orbital elements
Apogee altitude
1,646.586 km
Perigee altitude
1,432.045 km
Semi-major axis
7,917.453 km
Eccentricity
0.01355
Inclination
73.9132°
RAAN
207.7712°
Arg. of periapsis
190.3827°
True anomaly
324.55086°
Mean anomaly
325.4439°
Eccentric anomaly
324.99863°
Mean motion
3.08081 °/min
Orbital period
116.85 mins
BSTAR
0.0009871
Loading maneuver chart data...
Computing Atmospheric mass density...
Loading historical data...
Loading historical data...
Loading historical data...
Loading historical data...
Loading historical data...
Loading historical data...
Loading historical data...

Documentation

Showing up to 5 results
|